[[{"header":{"parameterUnit":"m.s-1","parameterCategory":1,"la1":30.2991,"la2":30.254,"lo1":-89.0895,"lo2":-89.0444,"dy":0.0017,"dx":0.0017,"nx":28,"ny":28,"refTime":"2025-06-03T09:00:00:Z","depth":0,"parameterNumber":2,"parameterNumberName":"U-component_of_WINDS"},"data":[0,0,0,0,0,0,0,0,0,0,0,0,0,0,0,0,0,0,0,0,0,0,0,0,0,0,0,0,0,0,0,0,0,0,0,0,0,0,0,0,0,0,0,0,0,0,0,0,0,0,0,0,0,0,0,0,0,0,-5.4557,-5.4557,0,-5.4567,-5.4567,-5.4567,-5.4469,-5.4466,-5.4463,-5.4461,-5.4469,-5.4471,-5.4474,0,0,0,0,0,0,0,0,0,0,0,0,0,-5.4451,-5.4453,-5.4557,-5.4557,-5.4557,-5.4567,-5.4567,-5.4567,-5.4469,-5.4466,-5.4463,-5.446,-5.4468,-5.4471,-5.4474,0,0,0,0,0,0,0,0,0,0,0,0,0,-5.4483,-5.4454,-5.4557,-5.451,-5.4505,-5.4567,-5.4567,-5.4567,-5.447,-5.4466,-5.4462,-5.4458,-5.4467,-5.4471,-5.4475,-5.4581,0,0,-5.4487,-5.4489,0,0,0,0,0,0,0,0,-5.4481,-5.4486,-5.4516,-5.4513,-5.4508,-5.4513,-5.4532,-5.4572,-5.4471,-5.4483,-5.4461,-5.4456,-5.4487,-5.4489,-5.4499,-5.4582,-5.4582,-5.4488,-5.449,-5.4492,-5.4493,0,0,0,0,0,0,0,-5.4479,-5.4485,-5.4561,-5.4517,-5.4512,-5.4487,-5.4487,-5.4539,-5.4507,-5.4482,-5.4475,-5.4478,-5.4483,-5.4496,-5.4499,-5.4582,-5.4488,-5.4491,-5.4494,-5.4495,-5.4751,-5.4755,0,0,0,0,0,0,-5.4483,-5.4484,-5.456,-5.4561,-5.4484,-5.4492,-5.4492,-5.4515,-5.4507,-5.4502,-5.4481,-5.4473,-5.4491,-5.4494,-5.4499,-5.462,-5.4492,-5.4496,-5.4498,-5.4746,-5.4751,-5.4756,0,0,0,0,0,0,-5.4481,-5.4491,-5.456,-5.4521,-5.4528,-5.4499,-5.4525,-5.4518,-5.453,-5.4506,-5.45,-5.4499,-5.4488,-5.4493,-5.4561,-5.4619,-5.4498,-5.4501,-5.4741,-5.4748,-5.4754,-5.4866,0,0,0,0,0,0,-5.4479,-5.4491,-5.4531,-5.4523,-5.453,-5.4623,-5.4529,-5.4521,-5.4537,-5.4527,-5.4521,-5.4517,-5.4485,-5.4556,-5.4565,-5.4623,-5.4505,-5.4736,-5.4744,-5.4752,-5.4857,-5.4876,-5.4892,0,0,0,0,0,-5.4475,-5.4563,-5.4534,-5.4544,-5.458,-5.4627,-5.4631,-5.4593,-5.4542,-5.4582,-5.4567,-5.4517,-5.4613,-5.4564,-5.4574,-5.4633,-5.4732,-5.4742,-5.4751,-5.4849,-5.4872,-5.4891,0,0,0,0,0,0,-5.4578,-5.456,-5.4528,-5.4616,-5.4624,-5.461,-5.4659,-5.4619,-5.464,-5.463,-5.4581,-5.4581,-5.4657,-5.4652,-5.4598,-5.4735,-5.4663,-5.4675,-5.4734,-5.4756,-5.4773,-5.477,-5.4508,0,0,0,0,0,-5.4611,-5.4651,-5.4633,-5.4712,-5.4718,-5.4689,-5.4707,-5.4678,-5.4683,-5.4686,-5.4676,-5.4683,-5.4714,-5.4735,-5.4763,-5.4858,-5.4854,-5.4904,-5.4921,-5.4935,-5.4945,-5.4993,-5.5014,-5.4788,-5.4788,-5.4788,0,0,-5.4679,-5.4675,-5.4702,-5.4733,-5.4735,-5.4776,-5.4691,-5.4739,-5.4768,-5.4693,-5.4755,-5.4749,-5.4754,-5.4835,-5.487,-5.4834,-5.5007,-5.4948,-5.4959,-5.4961,-5.5005,-5.5026,-5.5045,-5.4795,-5.4793,-5.4792,0,0,-5.4823,-5.4825,-5.4889,-5.4894,-5.49,-5.488,-5.4896,-5.4889,-5.4881,-5.4944,-5.4888,-5.4923,-5.4979,-5.4983,-5.4993,-5.5141,-5.5095,-5.5152,-5.524,-5.5287,-5.5305,-5.532,-5.537,-5.5389,-5.5163,-5.5163,-5.5163,0,-5.4906,-5.4966,-5.4928,-5.4978,-5.4992,-5.4928,-5.4992,-5.4998,-5.5013,-5.5023,-5.4983,-5.5051,-5.5049,-5.513,-5.5166,-5.5178,-5.5192,-5.515,-5.5306,-5.5321,-5.5335,-5.5381,-5.5401,-5.517,-5.5169,-5.5168,-5.5168,0,-5.5067,-5.511,-5.5161,-5.5177,-5.5197,-5.5255,-5.5224,-5.5249,-5.5219,-5.5203,-5.5268,-5.5265,-5.529,-5.5308,-5.5278,-5.5384,-5.5361,-5.5315,-5.524,-5.5364,-5.5406,-5.5424,-5.5179,-5.5177,-5.5175,-5.5173,0,0,-5.5272,-5.5267,-5.5286,-5.5291,-5.5294,-5.5325,-5.5381,-5.5406,-5.5427,-5.544,-5.5483,-5.5533,-5.5489,-5.5501,-5.5472,-5.5514,-5.5628,-5.5462,-5.5461,-5.5489,-5.5741,-5.5772,-5.5794,-5.5599,-5.5602,-5.5605,-5.5739,0,-5.5409,-5.5501,-5.5469,-5.5563,-5.5601,-5.5541,-5.5588,-5.5594,-5.5582,-5.5612,-5.5598,-5.5632,-5.5575,-5.5581,-5.562,-5.5606,-5.5677,-5.5596,-5.5636,-5.5638,-5.5632,-5.5817,-5.5851,-5.5977,-5.5756,-5.5759,-5.5761,0,-5.558,-5.56,-5.5698,-5.5693,-5.5708,-5.5751,-5.5771,-5.5802,-5.5807,-5.5795,-5.5809,-5.5771,-5.5823,-5.5753,-5.5823,-5.5769,-5.5784,-5.578,-5.5784,-5.5782,-5.5703,-5.5817,-5.6017,-5.6034,-5.5788,-5.5785,-5.5783,0,-5.5715,-5.5767,-5.5832,-5.5839,-5.5836,-5.5867,-5.5868,-5.5869,-5.5887,-5.5905,-5.5915,-5.594,-5.5952,-5.5971,-5.5941,-5.5893,-5.6014,-5.5942,-5.6003,-5.6004,-5.6028,-5.6026,-5.6229,-5.6045,-5.6045,-5.6045,-5.6044,0,-5.5869,-5.5931,-5.5892,-5.5932,-5.5998,-5.5961,-5.6028,-5.6021,-5.6024,-5.606,-5.6012,-5.6046,-5.6006,-5.6037,-5.6015,-5.6074,-5.6081,-5.6072,-5.6064,-5.6073,-5.6074,-5.6079,-5.6068,-5.605,-5.6048,-5.6047,-5.6047,0,-5.6029,-5.6007,-5.6072,-5.6065,-5.6065,-5.6114,-5.6106,-5.6142,-5.6127,-5.6174,-5.6183,-5.6159,-5.6193,-5.6166,-5.62,-5.6184,-5.6262,-5.6244,-5.626,-5.6253,-5.6315,-5.6308,-5.6525,-5.655,-5.6354,-5.6356,-5.6358,0,-5.6127,-5.6172,-5.617,-5.6191,-5.6194,-5.6229,-5.6247,-5.6213,-5.6233,-5.6243,-5.6277,-5.6308,-5.6329,-5.6387,-5.6372,-5.6397,-5.6376,-5.6451,-5.638,-5.6387,-5.6373,-5.6369,-5.6372,-5.6464,-5.6466,-5.6468,-5.647,0,-5.6301,-5.6288,-5.6315,-5.6339,-5.6361,-5.6379,-5.6392,-5.6412,-5.6377,-5.6402,-5.6436,-5.6454,-5.6488,-5.6518,-5.6538,-5.6537,-5.6497,-5.6493,-5.6508,-5.6515,-5.6521,-5.6515,-5.6295,-5.6487,-5.6485,-5.6484,-5.6483,-5.6482,-5.6429,-5.6467,-5.6471,-5.6503,-5.6509,-5.6523,-5.6555,-5.6546,-5.6574,-5.6599,-5.6578,-5.6619,-5.6623,-5.6647,-5.6651,-5.6682,-5.6651,-5.6673,-5.6678,-5.6683,-5.669,-5.6521,-5.6686,-5.6686,-5.6685,-5.6685,-5.6684,0,-5.6598,-5.6598,-5.6628,-5.6648,-5.6673,-5.6636,-5.6649,-5.6672,-5.6708,-5.6717,-5.674,-5.6779,-5.6808,-5.6797,-5.6822,-5.6849,-5.6831,-5.6856,-5.6852,-5.6851,-5.6718,-5.6701,-5.687,-5.687,-5.687,-5.687,-5.687,-5.687,-5.6688,-5.6748,-5.6736,-5.6798,-5.6798,-5.6838,-5.6848,-5.686,-5.6866,-5.6912,-5.6936,-5.6929,-5.6929,-5.6955,-5.6979,-5.6975,-5.6985,-5.7016,-5.7005,-5.688,-5.6861,-5.6843,-5.6827,-5.702,-5.702,-5.7135,-5.7136,-5.7137]},{"header":{"parameterUnit":"m.s-1","parameterCategory":1,"la1":30.2991,"la2":30.254,"lo1":-89.0895,"lo2":-89.0444,"dy":0.0017,"dx":0.0017,"nx":28,"ny":28,"refTime":"2025-06-03T09:00:00:Z","depth":0,"parameterNumber":3,"parameterNumberName":"V-component_of_WINDS"},"data":[0,0,0,0,0,0,0,0,0,0,0,0,0,0,0,0,0,0,0,0,0,0,0,0,0,0,0,0,0,0,0,0,0,0,0,0,0,0,0,0,0,0,0,0,0,0,0,0,0,0,0,0,0,0,0,0,0,0,2.6857,2.6858,0,2.6907,2.6908,2.6908,2.6858,2.6856,2.6854,2.6852,2.69,2.6903,2.6906,0,0,0,0,0,0,0,0,0,0,0,0,0,2.6717,2.672,2.6857,2.6858,2.6859,2.6907,2.6908,2.6908,2.6858,2.6856,2.6853,2.6851,2.6899,2.6903,2.6907,0,0,0,0,0,0,0,0,0,0,0,0,0,2.6774,2.6721,2.6857,2.6839,2.6838,2.6907,2.6908,2.6908,2.6859,2.6856,2.6853,2.685,2.6898,2.6903,2.6907,2.6995,0,0,2.6921,2.6923,0,0,0,0,0,0,0,0,2.677,2.6779,2.6841,2.6841,2.684,2.6873,2.6876,2.6937,2.6859,2.6851,2.6852,2.6849,2.6893,2.6898,2.6914,2.6997,2.6999,2.6922,2.6925,2.6927,2.6928,0,0,0,0,0,0,0,2.6767,2.6776,2.6877,2.6842,2.6841,2.6828,2.6833,2.6887,2.6888,2.6851,2.6848,2.6855,2.6892,2.691,2.6915,2.7,2.6922,2.6926,2.6929,2.6931,2.7158,2.7161,0,0,0,0,0,0,2.6765,2.6773,2.6875,2.6878,2.6797,2.6833,2.6839,2.6865,2.6887,2.6888,2.6857,2.6852,2.6903,2.6909,2.6916,2.702,2.6927,2.6931,2.6934,2.7155,2.7158,2.7162,0,0,0,0,0,0,2.6762,2.6775,2.6873,2.6825,2.6837,2.6839,2.6869,2.6868,2.6885,2.6892,2.6891,2.6875,2.6901,2.691,2.6976,2.7021,2.6933,2.6937,2.7151,2.7156,2.716,2.7229,0,0,0,0,0,0,2.6758,2.6774,2.6807,2.6826,2.6839,2.6933,2.6872,2.6871,2.6894,2.6888,2.6908,2.6908,2.6899,2.6969,2.6981,2.7026,2.6941,2.7147,2.7153,2.7159,2.7223,2.7236,2.7247,0,0,0,0,0,2.6754,2.6824,2.6809,2.6822,2.6882,2.6935,2.6943,2.6932,2.6897,2.6931,2.6935,2.6908,2.7015,2.6976,2.6989,2.7036,2.7144,2.7151,2.7158,2.7217,2.7233,2.7246,0,0,0,0,0,0,2.6809,2.6826,2.681,2.6889,2.6911,2.6927,2.6969,2.6949,2.6981,2.6973,2.6958,2.6963,2.7033,2.7041,2.6998,2.7123,2.7074,2.7084,2.7114,2.7129,2.7141,2.7137,2.6945,0,0,0,0,0,2.6831,2.6874,2.6886,2.6955,2.6967,2.6966,2.6989,2.6979,2.7001,2.701,2.7019,2.7041,2.7079,2.7105,2.7141,2.7224,2.7228,2.7263,2.7275,2.7285,2.7293,2.7338,2.7354,2.7186,2.7186,2.7186,0,0,2.6876,2.689,2.6918,2.6966,2.6982,2.7027,2.6974,2.7023,2.7056,2.7017,2.708,2.7088,2.7111,2.7187,2.722,2.7196,2.7341,2.7294,2.7302,2.7305,2.7347,2.7363,2.7377,2.7191,2.719,2.7189,0,0,2.6979,2.6995,2.7054,2.7072,2.7098,2.7097,2.7111,2.7131,2.7134,2.7198,2.717,2.7208,2.7275,2.7293,2.7311,2.7424,2.74,2.7436,2.7498,2.7542,2.7555,2.7567,2.7606,2.7621,2.7445,2.7445,2.7445,0,2.7031,2.7098,2.7087,2.7138,2.716,2.7129,2.7188,2.7205,2.7241,2.7257,2.7229,2.7313,2.7327,2.7406,2.7434,2.7449,2.7465,2.7433,2.7554,2.7566,2.7577,2.7614,2.7629,2.7449,2.7449,2.7448,2.7448,0,2.716,2.7207,2.7251,2.7288,2.7315,2.737,2.7367,2.7396,2.7384,2.7386,2.7451,2.7467,2.7505,2.7524,2.7512,2.7602,2.7586,2.7557,2.7507,2.7597,2.7632,2.7646,2.7455,2.7454,2.7453,2.7452,0,0,2.7298,2.733,2.7346,2.7363,2.739,2.7425,2.7479,2.7518,2.7543,2.7569,2.7613,2.7672,2.7645,2.7666,2.7656,2.7695,2.7783,2.7661,2.7661,2.7682,2.7882,2.7903,2.792,2.7768,2.7771,2.7773,2.788,0,2.7402,2.7497,2.7489,2.7578,2.7621,2.7593,2.764,2.7661,2.7665,2.7702,2.7706,2.7747,2.771,2.7722,2.7759,2.7764,2.7823,2.7757,2.7808,2.781,2.7801,2.7938,2.796,2.806,2.7893,2.7896,2.7897,0,2.7536,2.7568,2.7662,2.7683,2.7701,2.7743,2.7779,2.7814,2.7838,2.7838,2.7863,2.7847,2.79,2.7851,2.7925,2.788,2.7901,2.7907,2.7911,2.7914,2.7858,2.7944,2.8091,2.8106,2.7919,2.7917,2.7916,0,2.7626,2.7693,2.7758,2.7773,2.78,2.783,2.7843,2.7864,2.7888,2.7919,2.7935,2.7971,2.7991,2.802,2.8014,2.7979,2.8089,2.8039,2.809,2.809,2.8113,2.8112,2.8265,2.8129,2.8129,2.8129,2.8128,0,2.7743,2.7801,2.7799,2.7839,2.7903,2.7894,2.7958,2.7967,2.7986,2.8027,2.8005,2.8043,2.8034,2.8072,2.8068,2.8129,2.8139,2.814,2.8138,2.8141,2.8141,2.8153,2.8146,2.8133,2.8132,2.8131,2.813,0,2.7854,2.7855,2.7924,2.7944,2.7951,2.7997,2.8014,2.8052,2.8055,2.8106,2.8118,2.8123,2.8166,2.8164,2.8213,2.8211,2.8286,2.8277,2.8278,2.8276,2.8326,2.8321,2.8492,2.8514,2.8365,2.8366,2.8368,0,2.7927,2.7971,2.7997,2.8023,2.8038,2.808,2.8105,2.8099,2.8126,2.8157,2.8191,2.8233,2.8266,2.8337,2.8344,2.8382,2.8372,2.843,2.8377,2.8379,2.8372,2.8369,2.8373,2.8439,2.8441,2.8442,2.8443,0,2.8057,2.8056,2.8093,2.8132,2.8163,2.8192,2.8219,2.8242,2.8238,2.8269,2.8314,2.834,2.8391,2.8433,2.8469,2.8481,2.8462,2.846,2.8474,2.8477,2.8475,2.8476,2.8305,2.8456,2.8454,2.8453,2.8453,2.8452,2.815,2.8189,2.8213,2.8256,2.8276,2.8302,2.8338,2.8347,2.8385,2.8426,2.842,2.8471,2.8494,2.8541,2.8557,2.8596,2.8575,2.8595,2.86,2.8604,2.861,2.8471,2.8602,2.8602,2.8602,2.8601,2.8601,0,2.8278,2.8293,2.8333,2.8372,2.8406,2.8386,2.8416,2.8445,2.849,2.8514,2.8548,2.86,2.8641,2.8652,2.8691,2.872,2.8712,2.8731,2.8728,2.8731,2.8626,2.861,2.8736,2.8736,2.8736,2.8736,2.8736,2.8736,2.8349,2.8412,2.8415,2.8488,2.8502,2.8553,2.8571,2.8595,2.8614,2.8674,2.8708,2.8716,2.8735,2.8775,2.8812,2.8814,2.8829,2.8851,2.885,2.8752,2.8738,2.8725,2.871,2.8855,2.8855,2.895,2.8951,2.8952]}]]